[[{"header":{"parameterUnit":"m.s-1","parameterCategory":2,"la1":30.2992,"la2":30.254,"lo1":-89.0895,"lo2":-89.0443,"dy":0.0025,"dx":0.0025,"nx":19,"ny":19,"refTime":"2026-05-18T03:00:00:Z","depth":"0","parameterNumber":2,"parameterNumberName":"U-component_of_CURRENTS"},"data":[0,0,0,0.5507,0.5506,0.5484,0.5484,0.553,0.5531,0,0,0,0,0,0,0,0,0,0,0,0.5538,0.5538,0.5507,0.5506,0.5484,0.5484,0.553,0.5531,0,0,0,0,0,0,0,0,0,0,0,0.5538,0.5538,0.5538,0.5506,0.5484,0.5484,0.553,0.5533,0,0,0,0,0,0,0,0,0,0,0.5547,0.5571,0.5538,0.5538,0.5506,0.5484,0.5484,0.5533,0.5533,0.5555,0,0.5554,0,0.5526,0.5534,0.5534,0,0,0,0.5526,0.5571,0.5544,0.5538,0.5505,0.5484,0.55,0.5532,0.5533,0.5556,0.5554,0.5554,0.5527,0.5534,0.5534,0.5726,0.5728,0,0,0.5527,0.5555,0.5543,0.5544,0.5503,0.55,0.5499,0.5532,0.5548,0.5554,0.5554,0.5527,0.5534,0.5535,0.5724,0.5727,0,0,0,0.5517,0.5557,0.5529,0.5544,0.5524,0.5499,0.5497,0.5548,0.5532,0.5555,0.5528,0.5534,0.5535,0.5722,0.5725,0.5856,0,0,0,0.5519,0.5548,0.5529,0.5549,0.5523,0.5527,0.5513,0.5531,0.5532,0.5528,0.5534,0.5535,0.572,0.5724,0.5848,0.5868,0,0,0,0.5538,0.555,0.5544,0.555,0.5526,0.5525,0.5513,0.553,0.5515,0.5534,0.5536,0.5719,0.5723,0.5842,0.5858,0.607,0,0,0,0.5573,0.5552,0.5546,0.555,0.5526,0.5565,0.5512,0.5555,0.5581,0.5535,0.5721,0.5725,0.5839,0.5852,0.6061,0.6023,0.6059,0,0,0.5553,0.5551,0.5558,0.555,0.5591,0.5569,0.567,0.5674,0.5657,0.5713,0.5717,0.5851,0.5857,0.6068,0.6266,0.6295,0,0,0,0.5558,0.5563,0.5581,0.5609,0.5638,0.5725,0.5725,0.5767,0.5853,0.5685,0.5901,0.59,0.603,0.599,0.6014,0.5658,0.5744,0.5744,0.5744,0.553,0.5571,0.5624,0.5689,0.5754,0.5846,0.5938,0.6004,0.5959,0.6049,0.6046,0.6338,0.6297,0.6315,0.5948,0.6109,0.611,0.611,0.6111,0.5537,0.5589,0.5691,0.5751,0.5876,0.5975,0.6144,0.6169,0.6351,0.6235,0.6358,0.6174,0.6349,0.5948,0.612,0.6118,0.6117,0.6116,0.6116,0.5541,0.5582,0.5629,0.5781,0.593,0.6062,0.6281,0.6375,0.6463,0.657,0.6598,0.6594,0.6212,0.6674,0.6675,0.6676,0.6677,0.6678,0.6679,0.5535,0.5594,0.5694,0.5829,0.5942,0.6128,0.637,0.6526,0.6714,0.6736,0.6737,0.6267,0.651,0.6454,0.6695,0.6692,0.669,0.6688,0.6687,0.5582,0.5607,0.5744,0.5852,0.6083,0.6163,0.645,0.6703,0.6918,0.6997,0.6505,0.6864,0.683,0.6806,0.6759,0.7066,0.7066,0.7066,0.7066,0.562,0.5642,0.581,0.5956,0.6137,0.6197,0.6265,0.6427,0.6524,0.644,0.6458,0.623,0.6231,0.6146,0.6138,0.607,0.6195,0.6193,0.6191,0.5701,0.5734,0.5834,0.5936,0.6121,0.6147,0.5939,0.5733,0.5923,0.6117,0.5976,0.6014,0.5632,0.5661,0.5481,0.5499,0.5372,0,0]},{"header":{"parameterUnit":"m.s-1","parameterCategory":2,"la1":30.2992,"la2":30.254,"lo1":-89.0895,"lo2":-89.0443,"dy":0.0025,"dx":0.0025,"nx":19,"ny":19,"refTime":"2026-05-18T03:00:00:Z","depth":"0","parameterNumber":3,"parameterNumberName":"V-component_of_CURRENTS"},"data":[0,0,0,0.0049,0.0048,0.0012,0.0012,-0.008,-0.0081,0,0,0,0,0,0,0,0,0,0,0,0.0058,0.0058,0.0049,0.0048,0.0012,0.0012,-0.008,-0.0081,0,0,0,0,0,0,0,0,0,0,0,0.0058,0.0058,0.0058,0.0048,0.0012,0.0012,-0.008,-0.0045,0,0,0,0,0,0,0,0,0,0,-0.0005,0.0011,0.0058,0.0058,0.0048,0.0012,0.0012,-0.0043,-0.0047,-0.0073,0,-0.007,0,-0.0071,-0.0087,-0.0087,0,0,0,0.0034,0.0015,0.0012,0.0058,0.0048,0.0012,0.0024,-0.0045,-0.005,-0.0079,-0.0072,-0.0075,-0.0073,-0.0088,-0.0088,-0.0039,-0.0038,0,0,0.0036,0.004,0.0016,0.0009,0.0048,0.0026,0.0024,-0.0047,-0.0054,-0.0072,-0.0077,-0.0075,-0.0088,-0.0089,-0.004,-0.0039,0,0,0,0.0051,0.0041,0.0041,0.0013,0.0013,0.0025,0.0022,-0.0051,-0.0049,-0.0077,-0.0076,-0.0089,-0.009,-0.0041,-0.0039,0.0107,0,0,0,0.0052,0.0052,0.0042,0.0042,0.0015,-0.0013,0.002,-0.0044,-0.0052,-0.0075,-0.0089,-0.0091,-0.0043,-0.004,0.0101,0.0188,0,0,0,0.0058,0.0052,0.0053,0.0043,0.0035,-0.0012,-0.0015,-0.0046,-0.005,-0.0087,-0.0091,-0.0044,-0.0041,0.0094,0.0177,0.0334,0,0,0,0.0056,0.01,0.0053,0.0103,0.0036,0.0083,-0.0014,-0.0008,-0.0028,-0.0089,-0.0042,-0.004,0.0093,0.017,0.0326,0.0609,0.067,0,0,0.0123,0.0108,0.0143,0.0101,0.0171,0.0086,0.0167,0.0084,0.0006,-0.0029,-0.0028,0.0103,0.0176,0.0333,0.0774,0.083,0,0,0,0.0174,0.0196,0.021,0.023,0.0236,0.0259,0.0186,0.0175,0.0149,0.0009,0.012,0.0162,0.0256,0.041,0.0455,0.0305,-0.0026,-0.0027,-0.0027,0.025,0.0265,0.0327,0.0346,0.0375,0.0377,0.0409,0.0377,0.0264,0.0291,0.0294,0.0531,0.0696,0.0733,0.0574,0.0294,0.0295,0.0295,0.0296,0.0349,0.0382,0.0407,0.0476,0.0503,0.0556,0.0595,0.0556,0.0626,0.0475,0.0559,0.0571,0.0792,0.0604,0.0305,0.0304,0.0303,0.0302,0.0301,0.0373,0.0398,0.0438,0.0538,0.0627,0.0662,0.0828,0.0801,0.0773,0.0846,0.1015,0.1015,0.0843,0.0881,0.0883,0.0884,0.0885,0.0885,0.0886,0.0378,0.0427,0.0513,0.0607,0.0693,0.082,0.0959,0.1075,0.1232,0.1235,0.1237,0.0942,0.071,0.0679,0.0903,0.09,0.0898,0.0896,0.0895,0.042,0.0443,0.0584,0.068,0.09,0.1157,0.1255,0.163,0.1722,0.188,0.1543,0.1463,0.1457,0.1422,0.1409,0.1808,0.1808,0.1808,0.1808,0.0441,0.0461,0.0678,0.0865,0.1093,0.1326,0.1873,0.2207,0.2174,0.2102,0.1825,0.1706,0.1675,0.1667,0.1626,0.161,0.2051,0.205,0.205,0.0481,0.0548,0.0712,0.0911,0.119,0.1573,0.22,0.2827,0.2603,0.2025,0.156,0.1551,0.132,0.1284,0.1215,0.117,0.112,0,0]}],[{"header":{"parameterUnit":"m.s-1","parameterCategory":2,"la1":30.2992,"la2":30.254,"lo1":-89.0895,"lo2":-89.0443,"dy":0.0025,"dx":0.0025,"nx":19,"ny":19,"refTime":"2026-05-18T03:00:00:Z","depth":"2","parameterNumber":2,"parameterNumberName":"U-component_of_CURRENTS"},"data":[0,0,0,0.3426,0.343,0.3565,0.3565,0.3669,0.367,0,0,0,0,0,0,0,0,0,0,0,0.3355,0.3356,0.3426,0.3431,0.3565,0.3565,0.3669,0.367,0,0,0,0,0,0,0,0,0,0,0,0.3354,0.3356,0.3357,0.3431,0.3565,0.3565,0.3669,0.3576,0,0,0,0,0,0,0,0,0,0,0.345,0.3414,0.3355,0.3357,0.3432,0.3565,0.3565,0.3572,0.3582,0.3599,0,0.3631,0,0.3679,0.3679,0.3679,0,0,0,0.3397,0.3406,0.3447,0.3358,0.3434,0.3565,0.3495,0.3578,0.3589,0.3612,0.3633,0.3638,0.3681,0.368,0.368,0.3895,0.3897,0,0,0.339,0.3373,0.3439,0.3454,0.3484,0.3491,0.35,0.3585,0.3599,0.3634,0.3642,0.3683,0.368,0.3681,0.3894,0.3896,0,0,0,0.3391,0.3368,0.3407,0.3448,0.3493,0.3496,0.3506,0.3594,0.3609,0.3643,0.3684,0.3681,0.3683,0.3892,0.3894,0.3954,0,0,0,0.3385,0.3372,0.3403,0.3394,0.3492,0.356,0.3513,0.3602,0.3615,0.3684,0.3681,0.3684,0.3891,0.3893,0.3949,0.3963,0,0,0,0.3346,0.3368,0.3388,0.3393,0.347,0.356,0.3578,0.3605,0.3641,0.3679,0.3684,0.389,0.3893,0.3945,0.3957,0.409,0,0,0,0.3316,0.335,0.3388,0.341,0.3469,0.3565,0.3578,0.3673,0.3714,0.3682,0.3891,0.3894,0.3943,0.3953,0.4085,0.3963,0.3979,0,0,0.3336,0.3352,0.3354,0.3391,0.3503,0.3543,0.3647,0.3723,0.3769,0.3848,0.3854,0.3951,0.3956,0.4089,0.4157,0.4166,0,0,0,0.3341,0.3364,0.3396,0.3463,0.354,0.3647,0.3726,0.3786,0.3918,0.3818,0.4003,0.4005,0.4086,0.4003,0.4013,0.391,0.391,0.3909,0.3909,0.3364,0.3387,0.3421,0.3483,0.3566,0.3744,0.3838,0.3947,0.3963,0.4064,0.4093,0.4283,0.4196,0.4201,0.4144,0.4144,0.4144,0.4144,0.4145,0.3348,0.3323,0.3412,0.3456,0.36,0.3716,0.3943,0.4035,0.4236,0.4192,0.4271,0.4117,0.4214,0.415,0.4149,0.4149,0.4148,0.4147,0.4147,0.3278,0.3275,0.3309,0.3402,0.3571,0.3752,0.3991,0.4186,0.4303,0.4404,0.4375,0.4371,0.4314,0.4477,0.4478,0.4479,0.4479,0.448,0.448,0.3172,0.3216,0.3255,0.3365,0.3486,0.3696,0.4072,0.4243,0.4426,0.4444,0.4444,0.4397,0.4386,0.4337,0.4491,0.4489,0.4488,0.4487,0.4486,0.3102,0.3102,0.32,0.329,0.3484,0.3544,0.3961,0.4245,0.4462,0.4499,0.4486,0.4482,0.4461,0.4451,0.4405,0.4569,0.4569,0.4569,0.4569,0.3039,0.3035,0.3154,0.3263,0.3366,0.3472,0.3559,0.3774,0.41,0.4157,0.4174,0.4016,0.4023,0.3968,0.3969,0.3909,0.3944,0.3943,0.3941,0.3026,0.3078,0.3125,0.3164,0.3282,0.3248,0.3175,0.3154,0.3476,0.3907,0.3965,0.4546,0.4355,0.4351,0.4295,0.4286,0.4201,0,0]},{"header":{"parameterUnit":"m.s-1","parameterCategory":2,"la1":30.2992,"la2":30.254,"lo1":-89.0895,"lo2":-89.0443,"dy":0.0025,"dx":0.0025,"nx":19,"ny":19,"refTime":"2026-05-18T03:00:00:Z","depth":"2","parameterNumber":3,"parameterNumberName":"V-component_of_CURRENTS"},"data":[0,0,0,0.0312,0.0311,0.025,0.0249,0.0162,0.0161,0,0,0,0,0,0,0,0,0,0,0,0.0339,0.0339,0.0313,0.0311,0.025,0.0249,0.0162,0.0161,0,0,0,0,0,0,0,0,0,0,0,0.0339,0.0339,0.0338,0.0311,0.025,0.0249,0.0162,0.0209,0,0,0,0,0,0,0,0,0,0,0.0269,0.0287,0.0339,0.0338,0.0311,0.025,0.0249,0.0211,0.0206,0.019,0,0.0189,0,0.0174,0.0156,0.0156,0,0,0,0.0303,0.0291,0.0286,0.0338,0.031,0.025,0.0275,0.0208,0.0202,0.0183,0.0187,0.0184,0.0172,0.0155,0.0155,0.0171,0.0172,0,0,0.0307,0.0313,0.029,0.0283,0.0305,0.0277,0.0273,0.0205,0.0196,0.0187,0.0182,0.0171,0.0155,0.0154,0.017,0.0171,0,0,0,0.0322,0.0315,0.0311,0.0286,0.0276,0.0276,0.0271,0.0199,0.0201,0.0181,0.017,0.0154,0.0153,0.0169,0.017,0.0318,0,0,0,0.0324,0.0324,0.0313,0.0313,0.0278,0.0235,0.0267,0.0206,0.0198,0.017,0.0154,0.0153,0.0168,0.017,0.0313,0.0418,0,0,0,0.034,0.0325,0.0325,0.0314,0.0292,0.0236,0.0233,0.0204,0.0191,0.0155,0.0152,0.0168,0.017,0.0307,0.0408,0.0517,0,0,0,0.0339,0.0374,0.0325,0.0368,0.0293,0.0321,0.0233,0.0225,0.0205,0.0154,0.0169,0.017,0.0306,0.0401,0.051,0.0599,0.0639,0,0,0.0395,0.0381,0.0414,0.037,0.0429,0.0328,0.0387,0.0308,0.0226,0.0187,0.0187,0.0315,0.0407,0.0515,0.0705,0.0742,0,0,0,0.0442,0.0467,0.0477,0.0493,0.0482,0.0492,0.04,0.0372,0.0332,0.0221,0.031,0.0365,0.0428,0.0466,0.0496,0.0179,0.0179,0.0179,0.0178,0.052,0.0536,0.061,0.0624,0.0631,0.0597,0.0608,0.0549,0.0434,0.0439,0.048,0.0663,0.0704,0.0727,0.0451,0.0452,0.0452,0.0453,0.0453,0.0652,0.0718,0.0727,0.0803,0.0802,0.084,0.0808,0.0746,0.0757,0.062,0.0673,0.0615,0.0769,0.0465,0.0463,0.0461,0.046,0.0459,0.0458,0.0722,0.0768,0.0807,0.0927,0.1031,0.1026,0.1176,0.1072,0.0934,0.0974,0.0987,0.0984,0.0781,0.0984,0.0985,0.0986,0.0987,0.0988,0.0989,0.0793,0.0844,0.0979,0.109,0.1211,0.1348,0.1395,0.1419,0.1332,0.1195,0.1194,0.0843,0.0825,0.0811,0.1003,0.1001,0.0999,0.0997,0.0996,0.093,0.0946,0.1146,0.1282,0.1585,0.1819,0.1824,0.1857,0.1799,0.1774,0.1314,0.1301,0.1272,0.1246,0.1242,0.1534,0.1534,0.1534,0.1534,0.1018,0.1046,0.1332,0.1603,0.1895,0.2063,0.23,0.2176,0.1897,0.1651,0.1645,0.1522,0.1499,0.1472,0.144,0.1435,0.1778,0.1779,0.1779,0.1143,0.1204,0.1428,0.1686,0.2058,0.232,0.2492,0.2307,0.1862,0.1781,0.1616,0.1565,0.136,0.1333,0.1262,0.1224,0.1202,0,0]}],[{"header":{"parameterUnit":"m.s-1","parameterCategory":2,"la1":30.2992,"la2":30.254,"lo1":-89.0895,"lo2":-89.0443,"dy":0.0025,"dx":0.0025,"nx":19,"ny":19,"refTime":"2026-05-18T03:00:00:Z","depth":"4","parameterNumber":2,"parameterNumberName":"U-component_of_CURRENTS"},"data":[0,0,0,0.191,0.1916,0.2215,0.2216,0.2457,0.2458,0,0,0,0,0,0,0,0,0,0,0,0.1819,0.1821,0.1909,0.1916,0.2214,0.2216,0.2456,0.2458,0,0,0,0,0,0,0,0,0,0,0,0.1818,0.182,0.1823,0.1917,0.2214,0.2216,0.2456,0.2268,0,0,0,0,0,0,0,0,0,0,0.1996,0.1918,0.182,0.1823,0.1919,0.2214,0.2216,0.226,0.2279,0.2279,0,0.2342,0,0.2395,0.247,0.2471,0,0,0,0.1925,0.1903,0.1992,0.1824,0.1922,0.2213,0.2082,0.2272,0.2294,0.2303,0.2346,0.2356,0.2399,0.2472,0.2473,0.266,0.266,0,0,0.1908,0.1861,0.1977,0.2006,0.2019,0.2073,0.2091,0.2287,0.2308,0.2347,0.2362,0.2403,0.2473,0.2474,0.2659,0.266,0,0,0,0.1855,0.1849,0.1937,0.1995,0.2055,0.2081,0.2103,0.23,0.2333,0.2365,0.2406,0.2474,0.2476,0.2658,0.2659,0.2711,0,0,0,0.1846,0.1818,0.1929,0.1902,0.2052,0.2197,0.2111,0.232,0.2344,0.2405,0.2474,0.2478,0.2657,0.2659,0.2708,0.2722,0,0,0,0.1801,0.1812,0.1856,0.1899,0.2025,0.2196,0.2242,0.2328,0.2367,0.2471,0.2478,0.2657,0.2658,0.2705,0.2718,0.281,0,0,0,0.1729,0.1795,0.1855,0.1935,0.2022,0.2186,0.2241,0.2378,0.2469,0.2475,0.2657,0.2659,0.2704,0.2715,0.2806,0.2455,0,0,0,0.1763,0.1798,0.1841,0.1901,0.203,0.2144,0.2294,0.2438,0.2489,0.2582,0.2589,0.2709,0.2718,0.2809,0.2555,0,0,0,0,0.1817,0.1851,0.19,0.1994,0.2121,0.2266,0.2411,0.2486,0.2635,0.2552,0.2728,0.2732,0.2788,0.2573,0.2667,0.2667,0.2667,0.2666,0.2666,0.1803,0.1865,0.193,0.2037,0.2154,0.2363,0.2489,0.2619,0.2663,0.2743,0.2788,0.291,0.2684,0.2809,0.2809,0.2809,0.2809,0.281,0.281,0.1805,0.181,0.1928,0.2015,0.2182,0.2335,0.2586,0.2681,0.2873,0.2858,0.2912,0.2658,0.2815,0.2814,0.2813,0.2813,0.2812,0.2812,0.2812,0.1729,0.173,0.1815,0.194,0.2122,0.2352,0.2546,0.2754,0.2916,0.2991,0.2813,0.2966,0.2947,0.3052,0.3053,0.3053,0.3054,0.3054,0.3054,0.1586,0.1663,0.1706,0.1874,0.1971,0.2202,0.2561,0.2707,0.2928,0.2839,0.3038,0.2992,0.2984,0.2963,0.3062,0.3061,0.306,0.3059,0.3058,0.1438,0.1507,0.1552,0.1633,0.1839,0.1985,0.2367,0.2602,0.2738,0.2765,0.2762,0.2775,0.2733,0.2732,0.2699,0.2725,0.272,0.2716,0,0.1326,0.1365,0.1416,0.1482,0.1584,0.1845,0.199,0.2241,0.2458,0.2349,0.272,0.2704,0.2714,0.2654,0.2647,0.2599,0,0,0,0.1231,0.128,0.1277,0.1368,0.1447,0.1698,0.2019,0.2037,0.2408,0.2482,0.2613,0.264,0.2901,0.3084,0.3051,0.3042,0.3006,0,0]},{"header":{"parameterUnit":"m.s-1","parameterCategory":2,"la1":30.2992,"la2":30.254,"lo1":-89.0895,"lo2":-89.0443,"dy":0.0025,"dx":0.0025,"nx":19,"ny":19,"refTime":"2026-05-18T03:00:00:Z","depth":"4","parameterNumber":3,"parameterNumberName":"V-component_of_CURRENTS"},"data":[0,0,0,0.0329,0.0328,0.0292,0.0292,0.0235,0.0234,0,0,0,0,0,0,0,0,0,0,0,0.0341,0.0341,0.0329,0.0328,0.0292,0.0292,0.0235,0.0234,0,0,0,0,0,0,0,0,0,0,0,0.0341,0.0341,0.0341,0.0328,0.0292,0.0292,0.0235,0.0263,0,0,0,0,0,0,0,0,0,0,0.0298,0.0314,0.0341,0.034,0.0328,0.0292,0.0292,0.0264,0.0261,0.025,0,0.0249,0,0.0244,0.0231,0.0231,0,0,0,0.032,0.0317,0.0308,0.034,0.0328,0.0293,0.0306,0.0263,0.0259,0.0246,0.0249,0.0246,0.0243,0.0231,0.023,0.0239,0.024,0,0,0.0322,0.033,0.0311,0.0306,0.0324,0.0307,0.0305,0.026,0.0258,0.0248,0.0245,0.0242,0.023,0.023,0.0239,0.0239,0,0,0,0.0333,0.0332,0.0325,0.0309,0.0305,0.0307,0.0304,0.026,0.0258,0.0244,0.0241,0.023,0.0229,0.0238,0.0239,0.0354,0,0,0,0.0334,0.0339,0.0326,0.0329,0.0306,0.0284,0.0305,0.0261,0.0256,0.0241,0.023,0.0229,0.0238,0.0239,0.035,0.0424,0,0,0,0.0341,0.0339,0.0337,0.033,0.0318,0.0284,0.028,0.026,0.0254,0.0231,0.0229,0.0237,0.0239,0.0346,0.0416,0.0444,0,0,0,0.0347,0.0365,0.0338,0.0364,0.0319,0.034,0.028,0.0282,0.0269,0.023,0.0238,0.0239,0.0345,0.0412,0.0439,0.0457,0,0,0,0.0378,0.0368,0.0389,0.0364,0.0411,0.0344,0.0389,0.0339,0.028,0.0249,0.0249,0.0352,0.0416,0.0443,0.0522,0,0,0,0,0.0405,0.0427,0.0434,0.0455,0.0448,0.0463,0.0406,0.0381,0.0354,0.0278,0.0342,0.0379,0.0392,0.0389,0.0245,0.0244,0.0244,0.0244,0.0244,0.0464,0.0477,0.0534,0.0551,0.056,0.0544,0.0544,0.0498,0.0427,0.043,0.0466,0.0559,0.056,0.0442,0.0443,0.0443,0.0444,0.0444,0.0444,0.0555,0.06,0.0625,0.0686,0.0695,0.0729,0.0691,0.0648,0.063,0.0559,0.0564,0.0503,0.0456,0.0453,0.0452,0.045,0.045,0.0449,0.0448,0.0608,0.0636,0.0682,0.0783,0.087,0.0873,0.0947,0.0877,0.0759,0.077,0.0725,0.0633,0.063,0.076,0.0761,0.0761,0.0762,0.0762,0.0762,0.0642,0.0693,0.0785,0.0896,0.0996,0.1096,0.1104,0.1074,0.0954,0.0875,0.0806,0.0665,0.0655,0.0647,0.077,0.0768,0.0767,0.0767,0.0766,0.0702,0.0727,0.0873,0.0982,0.1214,0.1296,0.1305,0.1199,0.1158,0.1066,0.0903,0.0894,0.0851,0.0836,0.0832,0.1014,0.1015,0.1016,0,0.0733,0.0757,0.096,0.1157,0.1349,0.1423,0.1412,0.1346,0.116,0.1142,0.1141,0.0964,0.0953,0.0907,0.0895,0.0895,0,0,0,0.0776,0.0838,0.0988,0.1188,0.1427,0.1432,0.141,0.1353,0.1193,0.1137,0.1033,0.1029,0.0932,0.0791,0.0702,0.069,0.0673,0,0]}]]